Location: Brunembert
(50.7122°N, 1.8935°E)
Time: 04:14:49
(UTC+00:00)

SL-08 ROCKET BODY - Pass Details

Date: 22 April 2021
Orbit: 896 x 963 km, 82.9° (Epoch: 06 May)

Event Time Altitude Azimuth Distance (km) Brightness Sun altitude
Rises 21:20:37 0° 351° (N) 3,622 8.5 -18.8°
Reaches altitude 10° 21:23:11 10° 355° (N) 2,664 7.6 -19.1°
Maximum altitude 21:29:13 63° 77° (ENE) 1,032 4.5 -19.7°
Enters shadow 21:31:36 36° 143° (SE) 1,418 4.8 -19.9°
